Meteo pe oră la Abiego

Astăzi, 26 Iulie, Luni

Timp Temperatura Precipitaţii Vânt Presiune Umiditate
00:00 +18°C° 0.1 mm 2 m/s 704 mmHg 68%
01:00 +18°C° 0.4 mm 2 m/s 704 mmHg 71%
02:00 +17°C° 0.4 mm 2 m/s 704 mmHg 74%
03:00 +17°C° 0.4 mm 2 m/s 704 mmHg 77%
04:00 +17°C° 0.3 mm 2 m/s 704 mmHg 76%
05:00 +19°C° 0.3 mm 1 m/s 704 mmHg 75%
06:00 +19°C° 0.3 mm 1 m/s 705 mmHg 74%
07:00 +21°C° 0 mm 1 m/s 705 mmHg 67%
08:00 +22°C° 0 mm 1 m/s 705 mmHg 60%
09:00 +22°C° 0 mm 0 m/s 706 mmHg 53%
10:00 +26°C° 0 mm 1 m/s 706 mmHg 47%
11:00 +27°C° 0 mm 2 m/s 706 mmHg 41%
12:00 +29°C° 0 mm 3 m/s 706 mmHg 35%
13:00 +29°C° 0.1 mm 3 m/s 706 mmHg 35%
14:00 +29°C° 0.1 mm 3 m/s 705 mmHg 34%
15:00 +29°C° 0.1 mm 3 m/s 705 mmHg 34%
16:00 +29°C° 0 mm 3 m/s 705 mmHg 34%
17:00 +29°C° 0 mm 2 m/s 705 mmHg 33%
18:00 +29°C° 0 mm 2 m/s 705 mmHg 32%
19:00 +27°C° 0 mm 2 m/s 705 mmHg 39%
20:00 +25°C° 0 mm 2 m/s 706 mmHg 46%
21:00 +23°C° 0 mm 2 m/s 706 mmHg 54%
22:00 +21°C° 0 mm 2 m/s 706 mmHg 58%
23:00 +20°C° 0 mm 2 m/s 706 mmHg 62%

Mâine, 27 Iulie, Marţi

Timp Temperatura Precipitaţii Vânt Presiune Umiditate
00:00 +21°C° 0 mm 1 m/s 706 mmHg 67%
01:00 +20°C° 0 mm 1 m/s 706 mmHg 70%
02:00 +20°C° 0 mm 1 m/s 706 mmHg 73%
03:00 +19°C° 0 mm 1 m/s 706 mmHg 75%
04:00 +19°C° 0 mm 1 m/s 706 mmHg 74%
05:00 +20°C° 0 mm 1 m/s 706 mmHg 72%
06:00 +20°C° 0 mm 1 m/s 706 mmHg 71%
07:00 +21°C° 0 mm 2 m/s 706 mmHg 63%
08:00 +24°C° 0 mm 2 m/s 707 mmHg 55%
09:00 +26°C° 0 mm 2 m/s 707 mmHg 47%
10:00 +28°C° 0 mm 3 m/s 707 mmHg 42%
11:00 +29°C° 0 mm 3 m/s 707 mmHg 37%
12:00 +31°C° 0 mm 3 m/s 707 mmHg 32%
13:00 +33°C° 0 mm 3 m/s 706 mmHg 30%
14:00 +33°C° 0 mm 3 m/s 705 mmHg 28%
15:00 +34°C° 0 mm 3 m/s 705 mmHg 26%
16:00 +33°C° 0 mm 4 m/s 705 mmHg 30%
17:00 +30°C° 0 mm 4 m/s 704 mmHg 34%
18:00 +29°C° 0 mm 5 m/s 704 mmHg 38%
19:00 +27°C° 0 mm 4 m/s 705 mmHg 43%
20:00 +26°C° 0 mm 3 m/s 705 mmHg 47%
21:00 +24°C° 0 mm 2 m/s 705 mmHg 51%
22:00 +24°C° 0 mm 2 m/s 705 mmHg 52%
23:00 +23°C° 0 mm 2 m/s 705 mmHg 54%

Poimâine, 28 Iulie, Miercuri

Timp Temperatura Precipitaţii Vânt Presiune Umiditate
00:00 +21°C° 0 mm 2 m/s 705 mmHg 55%
01:00 +21°C° 0 mm 2 m/s 705 mmHg 57%
02:00 +22°C° 0 mm 1 m/s 705 mmHg 59%
03:00 +21°C° 0 mm 1 m/s 705 mmHg 60%
04:00 +21°C° 0 mm 1 m/s 705 mmHg 60%
05:00 +22°C° 0 mm 1 m/s 705 mmHg 60%
06:00 +22°C° 0 mm 1 m/s 705 mmHg 59%
07:00 +24°C° 0 mm 1 m/s 706 mmHg 55%
08:00 +25°C° 0 mm 2 m/s 706 mmHg 50%
09:00 +27°C° 0 mm 3 m/s 706 mmHg 45%
10:00 +29°C° 0 mm 3 m/s 706 mmHg 42%
11:00 +30°C° 0 mm 3 m/s 706 mmHg 39%
12:00 +33°C° 0 mm 3 m/s 707 mmHg 36%
13:00 +33°C° 0 mm 3 m/s 706 mmHg 34%
14:00 +34°C° 0 mm 3 m/s 706 mmHg 31%
15:00 +35°C° 0 mm 3 m/s 705 mmHg 29%
16:00 +34°C° 0 mm 3 m/s 705 mmHg 31%
17:00 +34°C° 0 mm 4 m/s 705 mmHg 32%
18:00 +33°C° 0 mm 4 m/s 705 mmHg 34%
19:00 +29°C° 0 mm 3 m/s 705 mmHg 42%
20:00 +27°C° 0 mm 2 m/s 705 mmHg 50%
21:00 +24°C° 0 mm 1 m/s 706 mmHg 58%
22:00 +24°C° 0 mm 1 m/s 706 mmHg 59%
23:00 +23°C° 0 mm 1 m/s 706 mmHg 60%

29 Iulie, Joi

Timp Temperatura Precipitaţii Vânt Presiune Umiditate
00:00 +23°C° 0 mm 1 m/s 706 mmHg 61%
01:00 +22°C° 0 mm 1 m/s 706 mmHg 63%
02:00 +22°C° 0 mm 1 m/s 705 mmHg 65%
03:00 +22°C° 0 mm 1 m/s 705 mmHg 66%
04:00 +22°C° 0 mm 1 m/s 705 mmHg 66%
05:00 +22°C° 0 mm 1 m/s 705 mmHg 65%
06:00 +22°C° 0 mm 1 m/s 706 mmHg 64%
07:00 +25°C° 0 mm 2 m/s 706 mmHg 56%
08:00 +27°C° 0 mm 2 m/s 706 mmHg 47%
09:00 +29°C° 0 mm 3 m/s 706 mmHg 39%
10:00 +31°C° 0 mm 3 m/s 706 mmHg 35%
11:00 +33°C° 0 mm 3 m/s 706 mmHg 31%
12:00 +35°C° 0 mm 4 m/s 706 mmHg 28%
13:00 +36°C° 0 mm 3 m/s 705 mmHg 26%
14:00 +37°C° 0 mm 3 m/s 705 mmHg 24%
15:00 +38°C° 0 mm 3 m/s 704 mmHg 22%
16:00 +37°C° 0 mm 4 m/s 704 mmHg 24%
17:00 +36°C° 0 mm 4 m/s 704 mmHg 27%
18:00 +35°C° 0 mm 5 m/s 703 mmHg 29%
19:00 +31°C° 0 mm 3 m/s 704 mmHg 38%
20:00 +28°C° 0 mm 2 m/s 704 mmHg 47%
21:00 +25°C° 0 mm 1 m/s 704 mmHg 56%
22:00 +24°C° 0 mm 1 m/s 704 mmHg 58%
23:00 +23°C° 0 mm 1 m/s 704 mmHg 61%

30 Iulie, Vineri

Timp Temperatura Precipitaţii Vânt Presiune Umiditate
00:00 +23°C° 0 mm 1 m/s 704 mmHg 63%
01:00 +22°C° 0 mm 1 m/s 704 mmHg 66%
02:00 +22°C° 0 mm 1 m/s 704 mmHg 68%
03:00 +21°C° 0 mm 1 m/s 704 mmHg 70%
04:00 +21°C° 0 mm 1 m/s 704 mmHg 71%
05:00 +21°C° 0 mm 1 m/s 704 mmHg 71%
06:00 +21°C° 0 mm 1 m/s 705 mmHg 71%
07:00 +23°C° 0 mm 1 m/s 705 mmHg 64%
08:00 +25°C° 0 mm 2 m/s 705 mmHg 57%
09:00 +27°C° 0 mm 2 m/s 706 mmHg 50%
10:00 +28°C° 0 mm 2 m/s 705 mmHg 46%
11:00 +30°C° 0 mm 3 m/s 705 mmHg 41%
12:00 +33°C° 0 mm 3 m/s 705 mmHg 36%
13:00 +33°C° 0 mm 4 m/s 705 mmHg 31%
14:00 +34°C° 0 mm 5 m/s 705 mmHg 25%
15:00 +35°C° 0 mm 5 m/s 704 mmHg 20%
16:00 +35°C° 0 mm 5 m/s 704 mmHg 21%
17:00 +34°C° 0 mm 4 m/s 704 mmHg 22%
18:00 +33°C° 0 mm 4 m/s 704 mmHg 23%
19:00 +29°C° 0 mm 3 m/s 704 mmHg 31%
20:00 +27°C° 0 mm 3 m/s 704 mmHg 39%
21:00 +24°C° 0 mm 3 m/s 704 mmHg 46%
22:00 +23°C° 0 mm 2 m/s 704 mmHg 51%
23:00 +21°C° 0 mm 2 m/s 704 mmHg 56%

31 Iulie, Sâmbătă

Timp Temperatura Precipitaţii Vânt Presiune Umiditate
00:00 +19°C° 0 mm 2 m/s 704 mmHg 60%
01:00 +19°C° 0 mm 2 m/s 704 mmHg 65%
02:00 +19°C° 0 mm 1 m/s 704 mmHg 69%
03:00 +18°C° 0 mm 1 m/s 704 mmHg 73%
04:00 +18°C° 0 mm 1 m/s 704 mmHg 73%
05:00 +19°C° 0 mm 1 m/s 704 mmHg 72%
06:00 +19°C° 0 mm 1 m/s 705 mmHg 72%
07:00 +20°C° 0 mm 2 m/s 705 mmHg 64%
08:00 +23°C° 0 mm 2 m/s 705 mmHg 56%
09:00 +25°C° 0 mm 3 m/s 705 mmHg 47%
10:00 +26°C° 0 mm 3 m/s 705 mmHg 45%
11:00 +27°C° 0 mm 3 m/s 704 mmHg 42%
12:00 +28°C° 0 mm 3 m/s 704 mmHg 39%
13:00 +29°C° 0 mm 4 m/s 704 mmHg 36%
14:00 +29°C° 0 mm 4 m/s 704 mmHg 34%
15:00 +30°C° 0 mm 4 m/s 703 mmHg 31%
16:00 +29°C° 0 mm 4 m/s 703 mmHg 32%
17:00 +29°C° 0 mm 5 m/s 703 mmHg 34%
18:00 +28°C° 0 mm 5 m/s 703 mmHg 35%
19:00 +25°C° 0.1 mm 5 m/s 704 mmHg 44%
20:00 +22°C° 0.1 mm 4 m/s 704 mmHg 54%
21:00 +19°C° 0.1 mm 4 m/s 704 mmHg 63%
22:00 +18°C° 0 mm 3 m/s 704 mmHg 66%
23:00 +17°C° 0 mm 3 m/s 705 mmHg 69%
Arată mai mult

Formular de consimțământ

Meteoprog și furnizorii noștri de servicii pot stoca și accesa date personale, precum cookies, identificatori de dispozitiv sau alte tehnologii similare pe dispozitivul dumneavoastră și procesa astfel de date pentru a personaliza conținutul și reclamele, dar și pentru a oferi caracteristici de social media și pentru a analiza traficul.

  • Stocarea și/sau accesarea informațiilor pe dispozitivul dumneavoastră

    Cookies, identificatori de dispozitiv sau alte informații pot fi stocate sau accesate pe dispozitiv în scopurile indicate mai sus.

  • Reclame și conținut personalizat, evaluarea reclamelor și a conținutului, informații despre audiențe și dezvoltarea produselor

    Reclamele și conținutul pot fi personalizate pe baza unui profil. Pot fi adăugate date suplimentare pentru a personaliza mai bine reclamele și conținutul. Performanța reclamelor și conținutului poate fi măsurată. Pot fi obținute informații despre utilizatorii care au văzut reclamele și conținutul. Aceste date pot fi utilizate pentru a dezvolta sau îmbunătăți experiența utilizatorilor, sistemele și software-ul.

Dând clic pe ‘Sunt de acord’, permiteți utilizarea cookie-urilor menționate, a identificatorilor de dispozitiv, balizelor web sau altor tehnologii similare. Setările pot fi modificate din browser-ul dispozitivului dumneavoastră.

În anumite scopuri, interesele legitime pot prima asupra consimțământului. Puteți citi mai multe informații în acest sens în Politica privind Confidențialitatea Datelor și Cookie.